Regional Weather Roundup
Issued by NWS Kansas City/Pleasant Hill, MO

Home | Current Version | Previous Version | Graphics & Text | Print | Product List | Glossary Off
Versions: 1 2 3 4 5 6 7 8 9 10 11 12 13 14 15 16 17 18 19 20 21 22 23 24 25 26 27 28 29 30 31 32 33 34 35 36 37 38 39 40 41 42 43 44 45 46 47 48 49 50

000
ASUS43 KEAX 192210
RWREAX

WEATHER ROUNDUP FOR EASTERN KANSAS AND NORTHWEST MISSOURI
NATIONAL WEATHER SERVICE KANSAS CITY/PLEASANT HILL MO
500 PM CDT THU OCT 19 2017

KSZ040-057-103>105-MOZ028-029-037-043-192300-
...KANSAS CITY METROPOLITAN AREA...

CITY           SKY/WX    TMP DP  RH WIND       PRES   REMARKS
K.C. INTL      MOSUNNY   77  53  43 S13       30.05F
K.C. DOWNTOWN  SUNNY     81  53  37 S9        30.04F
LEES SUMMIT    SUNNY     79  53  40 S14       30.07F
OLATHE - IXD   SUNNY     77  52  41 S14G20    30.07S
OLATHE - OJC   SUNNY     77  51  40 S10       30.07S
LAWRENCE       SUNNY     79  53  40 SE13      30.04S

$$

MOZ001>008-011>017-020>025-030>033-038>040-044>046-053-054-192300-
...NORTHERN AND CENTRAL MISSOURI...

CITY           SKY/WX    TMP DP  RH WIND       PRES   REMARKS
ST. JOSEPH     SUNNY     80  51  36 S14G20    30.03F
MOSBY          CLEAR     79  50  36 S7        30.06S
WARRENSBURG    SUNNY     77  50  38 S9        30.08S
WHITEMAN AFB   SUNNY     77  53  42 SW10      30.05S
CLINTON        SUNNY     77  54  44 S8        30.10S
SEDALIA        SUNNY     79  54  41 S10       30.11S
WARSAW         NOT AVBL
CHILLICOTHE      N/A     78  53  41 S8        30.07F
KIRKSVILLE     SUNNY     74  55  51 S9        30.10S

$$

MOZ041-047>049-056>058-063>065-088>090-097-192300-
...EASTERN AND SOUTHERN MISSOURI...

CITY           SKY/WX    TMP DP  RH WIND       PRES   REMARKS
ST. LOUIS INTL SUNNY     79  51  37 S6        30.14S
SPIRIT OF STL  SUNNY     80  51  36 CALM      30.12S
COLUMBIA       SUNNY     77  52  41 S8        30.12S
JEFFERSON CITY SUNNY     79  49  34 S7        30.10F
ROLLA          SUNNY     78  50  37 S10       30.14F
OSAGE BEACH    SUNNY     79  51  37 S8        30.13S
SPRINGFIELD    CLOUDY    80  46  30 S9        30.13S
BRANSON        CLOUDY    77  45  31 S9        30.16S
JOPLIN         PTSUNNY   75  54  47 S8        30.12F
WEST PLAINS    SUNNY     79  43  27 SE6       30.18S

$$

IAZ060-094-KSZ022-034>040-054-083-096-NEZ052-066-093-192300-
...KANSAS...SOUTHEAST NEBRASKA AND IOWA...

CITY           SKY/WX    TMP DP  RH WIND       PRES   REMARKS
TOPEKA         SUNNY     80  52  37 S10       30.03S
MANHATTAN      SUNNY     82  50  32 S12       29.99F
EMPORIA        SUNNY     78  49  35 S17       30.04S
CHANUTE        MOSUNNY   75  54  47 S12       30.09S
WICHITA        MOSUNNY   78  46  32 S18       30.03S
OMAHA          SUNNY     78  52  40 S15       29.98S
LINCOLN        SUNNY     79  55  43 S13       29.97F
FALLS CITY     SUNNY     78  51  38 SE10      30.01S
LAMONI         SUNNY     75  54  47 S9        30.05F
DES MOINES     MOSUNNY   76  54  46 SE14      30.02F

$$




USA.gov is the U.S. government's official web portal to all federal, state and local government web resources and services.